Location: Nairn
(57.5833°N, 3.8667°W)
Time: 03:39:47
(UTC+00:00)

Cosmos 1242 Rocket - Pass Details

Date: 07 August 2020
Orbit: 448 x 486 km, 81.2° (Epoch: 27 September)

Event Time Altitude Azimuth Distance (km) Brightness Sun altitude
Rises 00:38:00 0° 335° (NNW) 2,523 7.3 -16.0°
Reaches altitude 10° 00:40:28 10° 318° (NW) 1,648 5.9 -16.0°
Maximum altitude 00:43:08 20° 270° (W) 1,170 4.4 -15.9°
Enters shadow 00:44:20 17° 244° (WSW) 1,285 4.4 -15.9°
